RH
76 77 79 79 81 83 82 75 64 65 62 65 67 64 71 70 64 71 71 76 80 84 80 84 87 88 76 74 80 76 77 78 76 63 74 75 82 70 81 81 80 74 84
70 78 78 82 81 79 82 82 71 62 63 62 65 69 75 71 66 63 65 76 84 82 83 84 85 78 83 80 79 78 77 75 81 76 79 80 81 85 75 85 84 82 82
68 72 68 80 83 81 80 81 83 78 64 77 72 70 80 66 65 64 64 67 80 80 80 80 81 81 85 77 80 81 79 83 84 83 76 79 84 84 84 91 95 91 85
70 74 84 81 79 79 76 77 81 77 82 80 80 80 76 63 65 65 66 69 77 77 78 72 80 83 87 72 83 85 85 89 84 86 78 74 80 84 89 83 77 96 88
82 79 76 81 88 82 84 86 85 87 82 76 78 80 74 66 74 72 68 69 68 81 83 71 74 76 69 83 85 91 98 89 80 81 91 93 87 84 86 84 81 80 89
90 84 82 85 93 90 91 92 93 90 90 88 85 81 81 74 72 69 68 79 78 86 73 77 82 87 85 87 84 84 82 92 89 92 93 91 93 95 96 81 76 74 81
100 100 98 95 95 94 93 89 91 91 90 93 90 86 83 82 68 68 70 73 75 76 81 94 100 93 89 97 87 87 85 82 79 94 92 96 96 80 77 76 79 75 83
94 93 92 97 98 95 96 98 97 93 91 90 90 91 88 88 73 71 71 73 97 100 100 100 98 88 83 85 98 100 94 90 84 80 83 77 79 71 62 64 75 81 98
95 99 99 99 97 94 98 96 94 95 93 91 87 92 92 99 78 78 79 99 99 99 97 92 88 84 82 80 90 96 99 95 95 96 98 93 97 93 89 79 59 66 72
99 99 98 99 100 98 97 98 98 98 98 98 98 98 100 94 83 81 95 99 99 97 93 91 89 87 88 80 74 81 86 75 79 97 99 95 92 92 84 58 57 68 65
100 100 100 99 100 100 98 99 99 100 100 100 100 100 100 98 97 100 99 100 96 98 95 88 81 72 71 71 62 59 62 63 74 73 85 99 99 95 82 58 49 52 55
99 98 99 100 100 100 100 100 100 100 100 100 100 100 100 100 100 100 100 99 94 91 89 86 84 72 59 57 52 60 57 70 72 72 76 87 95 77 71 72 56 56 58
100 99 99 100 100 100 100 99 100 100 100 100 100 100 100 100 100 100 100 100 97 90 90 85 61 52 54 58 59 52 60 60 57 56 57 60 61 62 60 58 57 55 58
100 99 99 100 100 99 99 100 100 100 100 100 100 100 100 100 100 100 100 100 99 90 78 74 66 61 60 61 65 63 54 60 65 67 64 64 60 54 53 52 46 45 41
100 100 100 100 100 100 99 99 100 100 99 100 100 100 100 100 100 97 96 95 92 92 73 58 57 59 65 66 57 61 60 65 68 68 66 63 56 52 51 50 48 44 42
99 94 98 100 100 100 100 100 100 100 99 96 95 95 100 98 92 79 71 66 61 61 59 50 53 56 54 54 59 61 66 68 72 69 62 57 52 47 48 49 47 44 42
90 94 98 99 100 100 100 100 99 100 98 95 91 84 75 68 65 63 62 60 58 52 42 47 55 56 48 51 55 52 51 56 50 61 62 58 53 48 47 47 47 46 43
100 99 96 97 99 100 100 99 100 98 97 92 87 84 82 77 63 54 52 49 47 40 41 44 46 45 48 49 57 63 64 65 64 64 60 60 60 56 50 49 47 48 45
95 94 97 96 98 88 81 70 82 93 91 78 79 79 68 56 51 48 42 40 43 45 45 47 51 56 59 66 70 70 64 62 59 66 64 65 63 59 56 52 49 50 48
70 65 68 63 61 56 53 51 47 47 46 46 49 51 50 54 50 46 44 45 50 56 63 66 72 71 68 64 64 68 64 68 70 66 69 67 66 62 57 56 54 52 49
51 52 44 44 41 44 45 50 53 55 57 56 58 51 50 52 57 53 54 55 59 67 70 65 66 65 65 68 68 64 60 62 67 69 66 65 67 61 62 59 54 50 48
59 57 54 52 52 56 54 53 54 56 54 53 57 48 48 60 62 64 65 64 67 67 66 67 65 67 69 70 71 65 65 68 74 77 75 68 57 54 54 55 52 51 50
58 60 62 62 60 60 60 57 57 57 56 55 56 58 56 58 61 63 66 66 67 68 69 68 69 70 73 71 70 67 62 62 68 76 72 66 59 55 54 54 56 56 56
50 47 53 58 61 57 59 63 65 66 63 61 59 59 58 58 60 66 66 69 70 71 72 71 70 73 76 72 70 64 65 63 73 78 80 69 62 61 59 58 56 59 55
44 44 45 47 50 49 57 56 61 63 62 59 58 58 59 60 62 64 66 69 70 71 73 72 73 80 84 85 77 73 61 65 66 64 67 66 66 66 62 57 59 56 57
44 44 43 45 48 52 56 58 60 61 60 59 60 62 64 63 64 64 64 63 64 67 72 75 80 85 85 82 71 68 70 70 71 68 70 69 66 62 62 62 62 56 57
Wind_Speed
22 22 22 22 23 23 23 24 24 21 21 19 20 20 21 20 19 19 19 16 14 14 14 13 12 11 11 11 12 14 14 12 12 15 10 11 10 10 7 9 8 10 10
20 22 22 22 23 25 25 23 24 24 23 21 19 19 19 21 21 21 20 17 16 16 15 14 14 14 15 14 14 14 11 11 11 13 12 10 9 8 10 9 7 7 8
20 25 20 21 23 26 27 25 23 24 25 22 22 21 21 22 20 23 21 19 16 17 16 15 16 14 15 12 11 13 10 9 10 12 14 10 10 8 7 7 7 9 8
23 23 18 24 24 26 29 30 27 29 25 24 24 23 23 27 24 22 20 20 19 18 17 16 14 12 11 9 8 10 9 8 9 10 11 11 10 9 8 8 7 5 6
21 24 27 25 21 25 24 23 23 24 27 28 27 25 25 26 24 23 23 21 19 15 15 15 13 9 10 9 7 6 6 8 10 10 9 9 10 8 7 5 7 7 6
14 21 24 23 20 24 26 24 21 23 24 22 25 26 26 26 25 24 22 16 17 15 14 7 8 7 6 6 6 8 7 5 7 7 7 7 6 5 5 5 5 5 3
8 12 17 21 24 27 27 25 24 25 22 21 25 25 26 26 28 26 23 20 18 13 7 7 7 4 3 1 3 2 1 2 2 1 3 3 3 5 4 4 5 4 3
6 10 15 19 24 27 27 24 25 26 25 25 25 26 24 24 29 25 22 17 8 7 7 8 7 4 3 2 2 3 3 2 2 2 3 3 5 7 7 7 7 5 4
9 11 13 17 23 26 28 28 27 25 27 27 25 26 23 24 29 25 22 14 13 10 8 8 8 5 3 2 4 4 4 3 2 1 2 2 1 3 3 4 7 4 2
10 16 20 24 25 30 30 30 30 28 27 23 21 22 22 24 26 25 21 21 18 15 12 9 7 7 7 7 8 8 7 4 4 5 6 8 3 4 6 8 5 5 2
11 15 19 24 30 32 31 30 28 27 24 25 25 20 20 20 22 22 23 22 23 19 15 13 11 10 11 10 9 7 6 5 4 4 5 5 4 5 7 9 7 6 5
14 16 19 20 17 20 26 24 25 23 26 24 22 19 19 20 22 23 22 21 21 22 20 18 15 13 11 10 9 10 8 7 5 8 10 10 7 7 6 6 7 6 6
14 19 21 16 12 1 15 19 21 25 25 23 26 25 21 24 27 26 23 23 21 24 22 19 18 15 15 12 11 12 11 9 10 10 10 10 8 6 7 7 7 9 6
12 20 23 22 21 18 17 9 15 15 21 21 26 24 23 26 34 31 28 27 27 27 26 20 15 15 11 13 11 9 10 10 10 9 8 7 7 7 8 8 8 10 8
9 17 21 24 23 28 29 24 24 13 13 18 20 22 22 23 30 36 34 34 29 20 20 17 18 16 12 11 12 10 10 9 8 7 6 6 6 6 7 8 8 8 9
16 22 18 23 21 23 32 38 35 33 32 34 32 32 31 36 37 36 40 35 29 20 16 22 18 13 11 11 11 12 10 8 7 6 5 4 5 6 6 7 7 8 9
17 15 13 16 15 19 27 25 31 40 40 39 40 37 34 32 28 28 29 26 23 23 21 17 15 13 14 12 9 8 8 7 6 5 4 3 4 5 6 6 6 7 8
12 12 13 12 17 16 17 23 26 26 23 27 28 29 29 28 24 22 26 28 25 23 21 18 15 13 10 7 6 4 3 2 2 2 2 2 2 3 6 7 6 7 9
9 12 15 13 15 21 23 19 21 24 26 24 23 23 22 20 22 22 24 26 24 19 16 13 10 8 6 5 4 3 3 2 3 3 2 1 2 4 7 8 7 5 6
13 15 14 14 14 14 15 16 18 16 15 15 15 16 21 19 20 21 21 20 17 14 12 11 10 9 8 6 4 4 4 4 3 2 3 3 4 5 6 7 7 7 6
13 11 13 12 12 13 15 15 15 14 15 14 14 15 16 16 15 14 14 14 14 12 11 11 9 7 6 5 5 4 3 4 5 5 4 4 4 5 5 5 4 3 4
10 11 11 11 12 12 12 13 13 13 13 13 12 13 13 10 10 12 12 13 12 11 9 8 7 6 5 5 5 5 4 4 4 4 3 3 4 5 4 2 3 4 5
10 10 10 9 9 12 12 11 12 12 12 11 10 10 10 11 12 12 11 11 10 9 7 6 6 5 5 5 5 6 6 6 6 5 4 3 3 3 3 2 3 6 8
9 9 10 9 9 9 8 10 10 10 11 11 10 10 11 12 12 12 10 9 7 6 5 5 5 5 4 5 6 7 6 6 4 3 3 3 2 2 1 3 6 6 5
9 10 10 10 10 9 9 9 10 10 11 11 11 11 11 11 10 9 7 6 6 6 5 4 4 4 4 5 5 5 6 5 4 3 3 4 4 3 4 4 4 3 6
11 12 10 9 9 9 10 11 13 13 13 13 12 12 12 11 10 8 7 7 6 6 5 4 3 2 2 4 6 4 4 5 5 6 5 3 3 3 2 3 3 4 6
Wind_Direction
210 214 216 225 231 233 231 233 236 243 246 252 241 240 239 241 242 239 235 240 240 249 253 253 256 252 260 265 265 266 267 270 273 296 293 306 309 312 299 311 321 325 327
219 216 218 219 225 230 230 231 236 241 243 246 247 244 242 247 249 249 246 237 240 247 255 256 261 264 262 266 264 265 271 277 271 288 299 298 304 313 311 308 306 311 321
217 228 225 224 224 227 229 229 231 235 239 241 243 246 245 247 246 244 247 252 249 254 259 257 258 265 263 275 270 273 279 279 276 280 293 294 302 303 303 297 297 304 318
227 237 241 233 231 229 230 228 226 233 233 235 239 245 248 251 255 257 246 242 252 262 264 263 263 258 258 274 286 277 286 283 280 279 289 297 290 296 300 306 309 321 324
228 236 242 246 239 238 236 234 234 235 228 233 234 240 248 255 252 243 247 257 260 255 263 268 255 237 257 260 267 288 288 291 294 295 291 290 299 304 320 324 314 321 333
237 239 247 248 246 241 240 231 232 234 239 233 232 232 235 243 246 249 251 250 259 252 258 241 205 218 229 243 274 287 284 289 295 292 300 304 324 349 354 338 332 327 355
248 248 249 251 249 251 247 243 238 233 231 235 240 231 231 233 241 243 250 252 255 255 244 180 169 198 213 223 268 267 313 326 314 337 315 351 24 23 10 25 23 23 26
286 276 272 262 259 256 255 244 236 238 238 235 232 232 226 230 233 234 238 240 221 190 169 164 163 178 187 174 153 148 103 57 33 48 88 103 91 65 62 74 41 51 87
319 304 292 281 272 262 254 251 247 243 239 233 234 230 219 220 230 233 234 193 186 171 168 162 162 151 129 120 123 137 139 77 29 47 100 114 95 88 104 101 75 74 49
313 301 296 287 271 262 251 243 240 231 226 221 222 224 216 216 224 225 203 190 167 161 154 151 154 146 132 120 115 114 114 76 70 100 115 115 119 106 87 75 59 39 21
327 319 305 300 279 254 248 236 232 227 219 206 215 213 213 210 197 183 186 183 171 159 152 147 140 138 130 119 100 94 93 81 72 78 101 100 87 75 71 79 66 45 22
356 348 340 334 305 267 238 211 221 208 182 179 178 168 180 180 178 174 181 182 173 162 151 144 136 129 116 109 108 97 93 83 98 97 95 90 88 82 68 56 48 36 20
17 16 11 13 9 24 206 205 196 186 168 155 149 145 143 157 160 164 166 161 159 150 142 135 120 115 115 116 108 97 89 102 100 89 84 83 79 71 59 50 38 24 24
43 45 37 25 44 53 60 98 152 158 156 151 139 136 136 131 137 144 144 142 135 127 126 125 119 123 136 119 116 92 92 91 92 90 85 83 77 66 55 41 26 14 6
67 57 51 40 45 58 65 70 73 89 120 121 116 122 127 123 119 122 122 115 110 112 116 118 118 116 111 106 99 87 84 86 83 83 88 85 69 54 42 27 21 17 16
85 71 63 62 55 70 77 67 83 96 109 108 109 110 103 100 101 103 99 103 111 124 131 121 109 107 101 97 90 83 81 79 79 86 88 77 60 44 37 33 28 24 18
92 90 85 83 78 84 88 86 84 80 85 90 94 98 102 104 108 109 113 128 133 139 125 114 108 103 101 97 96 99 91 85 80 73 66 63 50 44 31 18 14 13 360
102 101 100 109 107 94 90 97 100 101 97 96 99 102 103 106 112 122 128 132 133 130 128 124 118 118 119 115 109 97 83 76 72 48 37 23 19 7 358 359 347 346 347
121 116 114 113 121 120 113 106 111 114 119 122 121 121 122 128 135 141 141 135 131 130 133 136 136 129 122 113 97 80 62 15 349 339 333 356 357 349 338 331 321 305 311
114 116 116 115 118 120 118 117 119 121 127 133 133 134 133 129 134 133 132 132 132 133 134 127 118 112 101 85 59 24 8 6 17 26 27 23 10 343 317 312 313 315 323
123 122 121 117 123 126 126 126 123 130 131 122 120 134 141 135 129 131 129 133 130 124 121 117 106 92 70 56 51 49 38 31 29 22 9 354 334 320 320 323 330 351 350
134 136 136 134 134 137 140 137 131 127 126 123 115 126 146 132 132 128 126 124 121 117 113 105 96 81 68 62 52 44 35 30 18 8 350 343 346 352 353 22 44 15 350
152 154 153 149 156 155 149 150 149 147 144 140 132 124 123 125 128 127 128 127 126 124 115 96 80 72 69 61 44 34 23 6 357 348 333 342 4 20 21 29 0 334 331
171 167 169 171 166 169 171 170 162 160 153 150 143 139 139 137 136 136 138 137 131 121 107 98 94 89 71 49 27 19 8 356 355 358 4 354 7 38 40 344 340 340 340
180 177 167 164 169 172 166 162 160 159 158 155 152 150 150 147 143 141 140 142 147 145 132 117 101 90 57 38 26 14 4 15 33 65 79 97 88 40 359 354 6 5 16
190 187 184 180 181 180 174 166 159 159 160 159 158 157 159 161 159 158 158 157 151 147 142 126 108 89 49 10 348 3 54 72 81 103 90 76 38 15 34 46 31 9 27